Deelen, Netherlands

12:14 AM CEST on October 22, 2017 (GMT +0200)
Deelen Air Base

Weather History for EHDL - January, 2013

Change the Weather History Date:

Thursday, January 24, 2013

  Actual Average Record
Temperature  
Mean Temperature 24 °F -  
Max Temperature 32 °F 42 °F 50 °F (2001)
Min Temperature 17 °F 33 °F 15 °F (2000)
Degree Days  
Heating Degree Days 40    
Moisture  
Dew Point 21 °F    
Average Humidity 84    
Maximum Humidity 100    
Minimum Humidity 64    
Precipitation  
Precipitation 0.00 in - - ()
Sea Level Pressure  
Sea Level Pressure 30.00 in    
Wind  
Wind Speed 7 mph ()    
Max Wind Speed 12 mph    
Max Gust Speed 16 mph    
Visibility 5.7 miles    
Events      
Averages and records for this station are not official NWS values.
T = Trace of Precipitation, MM = Missing Value Source: Averaged Metar Reports

Daily Weather History Graph

Daily Weather History Graph

Search for Another Location

Airport or City:

Trip Planner

Search our weather history database for the weather conditions in past years. The results will help you decide how hot, cold, wet, or windy it might be!

Date:

Astronomy

Jan. 24, 2013 Rise Set
Actual Time 8:27 AM CET 5:09 PM CET
Civil Twilight 7:50 AM CET 5:47 PM CET
Nautical Twilight 7:08 AM CET 6:29 PM CET
Astronomical Twilight 6:28 AM CET 7:09 PM CET
Moon 2:52 PM CET (1/24) 6:19 AM CET (1/24)
Length of Visible Light 9h 57m
Length of Day
8h 41m
Waxing Gibbous, 93% of the Moon is Illuminated
Jan 24
Waxing Gibbous
Jan 27
Full
Feb 3
Last Quarter
Feb 10
New
Feb 17
First Quarter

Hourly Weather History & Observations

Time (CET) Temp. Windchill Dew Point Humidity Pressure Visibility Wind Dir Wind Speed Gust Speed Precip Events Conditions
12:25 AM 24.8 °F 16.9 °F 19.4 °F 80% 29.89 in 6.2 mi NE 6.9 mph - N/A   Overcast
12:55 AM 24.8 °F 15.3 °F 21.2 °F 86% 29.89 in 6.2 mi ENE 9.2 mph - N/A   Overcast
1:25 AM 24.8 °F 14.6 °F 21.2 °F 86% 29.86 in 5.6 mi ENE 10.4 mph - N/A   Overcast
1:55 AM 23.0 °F 13.1 °F 21.2 °F 93% 29.89 in 5.6 mi ENE 9.2 mph - N/A   Overcast
2:25 AM 23.0 °F 12.4 °F 19.4 °F 86% 29.86 in 4.3 mi ENE 10.4 mph - N/A   Overcast
2:55 AM 21.2 °F 10.1 °F 19.4 °F 93% 29.89 in - ENE 10.4 mph - N/A   Overcast
3:25 AM 23.0 °F 12.4 °F 21.2 °F 93% 29.89 in 2.8 mi ENE 10.4 mph - N/A   Overcast
3:55 AM 23.0 °F 13.9 °F 21.2 °F 93% 29.89 in - NE 8.1 mph - N/A   Overcast
4:25 AM 21.2 °F 12.6 °F 21.2 °F 100% 29.89 in 3.7 mi NE 6.9 mph - N/A   Overcast
4:55 AM 23.0 °F 15.8 °F 21.2 °F 93% 29.89 in 5.0 mi ENE 5.8 mph - N/A   Overcast
5:25 AM 23.0 °F 14.7 °F 21.2 °F 93% 29.89 in 5.0 mi NE 6.9 mph - N/A   Overcast
5:55 AM 24.8 °F 16.1 °F 21.2 °F 86% 29.92 in 6.2 mi NE 8.1 mph - N/A   Overcast
6:25 AM 23.0 °F 14.7 °F 21.2 °F 93% 29.92 in 5.6 mi NE 6.9 mph - N/A   Overcast
6:55 AM 24.8 °F 16.1 °F 21.2 °F 86% 29.92 in 5.6 mi NNE 8.1 mph - N/A   Overcast
7:25 AM 23.0 °F 13.9 °F 21.2 °F 93% 29.95 in 5.6 mi North 8.1 mph - N/A   Overcast
7:55 AM 23.0 °F 13.1 °F 21.2 °F 93% 29.95 in 5.0 mi NNE 9.2 mph - N/A   Mostly Cloudy
8:25 AM 23.0 °F 13.1 °F 21.2 °F 93% 29.95 in 4.3 mi NNE 9.2 mph - N/A   Mostly Cloudy
8:55 AM 23.0 °F 14.7 °F 21.2 °F 93% 29.98 in 3.7 mi NNE 6.9 mph - N/A   Overcast
9:25 AM 23.0 °F 14.7 °F 21.2 °F 93% 29.98 in 4.3 mi North 6.9 mph - N/A   Overcast
9:55 AM 24.8 °F 15.3 °F 23.0 °F 93% 29.98 in 5.0 mi NNE 9.2 mph - N/A   Overcast
10:25 AM 24.8 °F 16.1 °F 23.0 °F 93% 29.98 in 5.6 mi NNE 8.1 mph - N/A   Overcast
10:55 AM 26.6 °F 18.2 °F 23.0 °F 86% 29.98 in 6.2 mi NNE 8.1 mph - N/A   Overcast
11:25 AM 26.6 °F 18.2 °F 23.0 °F 86% 30.01 in 6.2 mi NNE 8.1 mph - N/A   Mostly Cloudy
11:47 AM 28.4 °F 19.7 °F 21.2 °F 74% 30.01 in 6.2 mi NNE 9.2 mph - N/A   Overcast
11:55 AM 28.4 °F 19.1 °F 21.2 °F 74% 30.01 in 6.2 mi NNE 10.4 mph - N/A   Overcast
12:25 PM 30.2 °F 21.3 °F 23.0 °F 75% 30.01 in 6.2 mi NNE 10.4 mph - N/A   Overcast
12:55 PM 30.2 °F 20.8 °F 21.2 °F 69% 30.01 in 6.2 mi NNE 11.5 mph - N/A   Partly Cloudy
1:25 PM 30.2 °F 21.3 °F 21.2 °F 69% 30.01 in 6.2 mi NE 10.4 mph - N/A   Unknown
1:55 PM 30.2 °F 21.3 °F 19.4 °F 64% 30.01 in 6.2 mi NNE 10.4 mph - N/A   Unknown
2:25 PM 30.2 °F 21.3 °F 19.4 °F 64% 30.01 in 6.2 mi NNE 10.4 mph - N/A   Unknown
2:55 PM 32.0 °F 23.6 °F 21.2 °F 64% 30.01 in 6.2 mi NE 10.4 mph - N/A   Unknown
3:25 PM 30.2 °F 21.9 °F 21.2 °F 69% 30.01 in 6.2 mi NE 9.2 mph - N/A   Unknown
3:55 PM 28.4 °F 19.1 °F 23.0 °F 80% 30.04 in 6.2 mi NNE 10.4 mph - N/A   Partly Cloudy
4:02 PM 28.4 °F 19.7 °F 21.2 °F 74% 30.04 in 6.2 mi NNE 9.2 mph - N/A   Unknown
4:25 PM 28.4 °F 20.4 °F 23.0 °F 80% 30.04 in 6.2 mi NE 8.1 mph - N/A   Mostly Cloudy
4:55 PM 28.4 °F 23.3 °F 23.0 °F 80% 30.04 in 6.2 mi NNE 4.6 mph - N/A   Overcast
5:25 PM 26.6 °F 20.0 °F 21.2 °F 80% 30.06 in 6.2 mi NE 5.8 mph - N/A   Unknown
5:55 PM 21.2 °F - 17.6 °F 86% 30.06 in 6.2 mi North 2.3 mph - N/A   Partly Cloudy
6:24 PM 19.4 °F - 17.6 °F 93% 30.06 in 6.2 mi NE 2.3 mph - N/A   Unknown
6:25 PM 19.4 °F - 15.8 °F 86% 30.06 in 6.2 mi NE 2.3 mph - N/A   Unknown
6:55 PM 17.6 °F - 15.8 °F 93% 30.06 in 4.3 mi NE 2.3 mph - N/A   Scattered Clouds
7:25 PM 21.2 °F 16.4 °F 19.4 °F 93% 30.06 in 6.2 mi NNW 3.5 mph - N/A   Overcast
7:55 PM 24.8 °F 20.5 °F 23.0 °F 93% 30.09 in 6.2 mi NNE 3.5 mph - N/A   Overcast
8:25 PM 26.6 °F 22.6 °F 21.2 °F 80% 30.09 in 6.2 mi North 3.5 mph 16.1 mph N/A   Overcast
8:55 PM 26.6 °F - 21.2 °F 80% 30.12 in 6.2 mi WNW 2.3 mph - N/A   Overcast
9:25 PM 26.6 °F 20.0 °F 21.2 °F 80% 30.12 in 6.2 mi NNE 5.8 mph - N/A   Overcast
9:55 PM 26.6 °F 18.2 °F 21.2 °F 80% 30.12 in 6.2 mi NNE 8.1 mph - N/A   Overcast
10:25 PM 26.6 °F 21.2 °F 21.2 °F 80% 30.12 in 6.2 mi NE 4.6 mph - N/A   Overcast
10:33 PM 26.6 °F 21.2 °F 21.2 °F 80% 30.12 in 6.2 mi NE 4.6 mph - N/A   Overcast
10:55 PM 26.6 °F 21.2 °F 21.2 °F 80% 30.12 in 6.2 mi NE 4.6 mph - N/A   Overcast
11:25 PM 26.6 °F 20.0 °F 21.2 °F 80% 30.12 in 6.2 mi NE 5.8 mph - N/A   Overcast
11:55 PM 26.6 °F 20.0 °F 21.2 °F 80% 30.12 in 6.2 mi NE 5.8 mph - N/A   Overcast